Notices

What's New in latest Release from April 7th, 2021:

- Updated Glossary, including Speed of Maximum Gust, and Total Hourly Precipitation

- Updated national and regional climate services offices contacts and prices information

- Addition of station inventory lists for 1981-2010, 1971-2000, and 1961-1990 Normals.

If you haven't already, please take our survey and provide feedback about our website: https://eccc.sondage-survey.ca/f/LanguageSelection.aspx?s=442ca660-fcf1-47c0-95a9-59707d6fd709

Hourly Data Report for December 10, 2020

CARBERRY CS
MANITOBA
Current Station Operator: ECCC - MSC

49°54'20.900" N
99°21'26.800" W
383.50 m
5010547
71170
WZE

Download Data

Hourly Data (December 2020)
Hourly Data Report for December 10, 2020
TIME
LST
Temp Definition
°C
Dew Point Definition
°C
Rel Hum Definition
%
Precip. Amount Definition
mm

Wind Dir Definition
10's deg

Wind Spd Definition
km/h
Visibility Definition
km
Stn Press Definition
kPa
Hmdx Definition


Wind Chill Definition


Weather Definition


00:00 1.2 1.2 100 0.6 28 8   96.62     LegendNANA
01:00 1.0 1.0 100 0.0 28 11   96.63     LegendNANA
02:00 0.4 0.4 100 0.0 27 13   96.67     LegendNANA
03:00 0.2 0.2 100 0.0 27 13   96.73     LegendNANA
04:00 -0.5 -0.9 97 0.0 29 13   96.78   -5 LegendNANA
05:00 -1.4 -1.8 97 0.2 29 14   96.80   -6 LegendNANA
06:00 -2.0 -2.9 94 0.0 29 19   96.86   -8 LegendNANA
07:00 -3.3 -3.6 98 0.0 30 15   96.91   -8 LegendNANA
08:00 -3.9 -4.4 96 0.0 29 11   96.95   -8 LegendNANA
09:00 -4.4 -5.0 96 0.0 27 8   97.05   -8 LegendNANA
10:00 -3.6 -4.6 92 0.0 27 13   97.15   -8 LegendNANA
11:00 -2.8 -3.3 96 0.0 29 13   97.24   -7 LegendNANA
12:00 -2.4 -2.6 98 0.0 28 15   97.25   -7 LegendNANA
13:00 -2.5 -3.1 95 0.0 29 14   97.27   -7 LegendNANA
14:00 -2.2 -2.8 96 0.0 27 13   97.28   -7 LegendNANA
15:00 -2.3 -2.9 96 0.0 28 17   97.34   -8 LegendNANA
16:00 -2.2 -2.6 97 0.0 27 12   97.40   -6 LegendNANA
17:00 -2.6 -3.6 93 0.0 28 12   97.43   -7 LegendNANA
18:00 -2.9 -4.0 92 0.0 29 12   97.49   -7 LegendNANA
19:00 -3.1 -4.1 93 0.0 30 8   97.49   -6 LegendNANA
20:00 -3.1 -4.1 93 0.0 27 7   97.52   -6 LegendNANA
21:00 -3.1 -4.4 91 0.0 26 7   97.54   -6 LegendNANA
22:00 -3.2 -4.2 93 0.0 22 6   97.53   -6 LegendNANA
23:00 -3.1 -4.1 93 0.0 25 4   97.55   -5 LegendNANA

Notes on Data Quality.

Legend

  • E = Estimated
  • M = Missing
  • NA = Not Available*
  • [empty] = Indicates an unobserved value
Date modified: